Back to catalog

BREEZE-M DEB

AliveMEO
NORAD 62722·DEBRIS·🇷🇺 Russia

Launched Jan 28, 2008 from Baikonur Cosmodrome

Loading…

Next Passes (next 24 hours)

TLE

FreshSource: Space-Track

Epoch: Sep 13, 2026, 13:39 UTC

1 62722U 08003D   26256.56896802 -.00000007  00000-0  00000-0 0  9993
2 62722  11.4647  25.8026 0891128 183.6525 175.7389  1.01927083 13674

Track BREEZE-M DEB in real time with AllMySat

Download on the App Store